TimeMST,TemperatureF,Dew PointF,Humidity,Sea Level PressureIn,VisibilityMPH,Wind Direction,Wind SpeedMPH,Gust SpeedMPH,PrecipitationIn,Events,Conditions,WindDirDegrees,DateUTC
12:53 AM,12.0,1.9,64,30.34,10.0,WSW,12.7,-,N/A,,Clear,250,2013-01-04 07:53:00
1:53 AM,10.9,1.9,67,30.33,10.0,WSW,10.4,-,N/A,,Clear,250,2013-01-04 08:53:00
2:53 AM,12.9,1.9,62,30.32,10.0,West,11.5,-,N/A,,Clear,260,2013-01-04 09:53:00
3:53 AM,12.9,1.9,62,30.30,10.0,WSW,10.4,-,N/A,,Clear,250,2013-01-04 10:53:00
4:53 AM,12.2,1.4,62,30.18,10.0,West,12.7,-,N/A,,Clear,260,2013-01-04 11:53:00
5:53 AM,15.8,1.4,53,30.18,10.0,West,11.5,-,N/A,,Clear,260,2013-01-04 12:53:00
6:53 AM,12.0,1.9,64,30.35,10.0,WSW,9.2,-,N/A,,Clear,250,2013-01-04 13:53:00
7:53 AM,16.0,3.0,57,30.35,10.0,West,10.4,-,N/A,,Clear,260,2013-01-04 14:53:00
8:53 AM,24.1,6.1,46,30.32,10.0,WSW,9.2,-,N/A,,Clear,250,2013-01-04 15:53:00
9:53 AM,28.0,10.9,49,30.31,10.0,NW,8.1,-,N/A,,Clear,310,2013-01-04 16:53:00
10:53 AM,33.1,12.9,43,30.29,10.0,Calm,Calm,-,N/A,,Clear,0,2013-01-04 17:53:00
11:53 AM,37.9,9.0,30,30.23,10.0,Calm,Calm,-,N/A,,Clear,0,2013-01-04 18:53:00
12:53 PM,39.9,9.0,28,30.19,10.0,Calm,Calm,-,N/A,,Clear,0,2013-01-04 19:53:00
1:53 PM,39.9,12.0,32,30.18,10.0,SSE,4.6,-,N/A,,Clear,160,2013-01-04 20:53:00
2:53 PM,37.9,15.1,39,30.17,10.0,South,9.2,-,N/A,,Clear,170,2013-01-04 21:53:00
3:53 PM,34.0,18.0,52,30.17,10.0,South,6.9,-,N/A,,Clear,180,2013-01-04 22:53:00
4:53 PM,27.0,12.9,56,30.18,10.0,South,6.9,-,N/A,,Clear,190,2013-01-04 23:53:00
5:53 PM,19.9,10.9,68,30.20,10.0,South,6.9,-,N/A,,Clear,190,2013-01-05 00:53:00
6:53 PM,21.9,14.0,72,30.19,10.0,South,10.4,-,N/A,,Clear,190,2013-01-05 01:53:00
7:53 PM,25.0,12.0,58,30.15,10.0,SW,10.4,-,N/A,,Clear,230,2013-01-05 02:53:00
8:53 PM,21.0,10.9,65,30.13,10.0,SW,11.5,-,N/A,,Clear,220,2013-01-05 03:53:00
9:53 PM,19.0,9.0,65,30.13,10.0,WSW,10.4,-,N/A,,Clear,240,2013-01-05 04:53:00
10:53 PM,18.0,8.1,65,30.10,10.0,West,10.4,-,N/A,,Clear,260,2013-01-05 05:53:00
11:53 PM,19.0,9.0,65,30.07,10.0,West,10.4,-,N/A,,Clear,270,2013-01-05 06:53:00